• In Latvia
  • List of Countries
  • For 7 days
  • Water Temperature
  • Satellite Maps
  • Weather Map
  • Weather Widgets
  • user-avatar
    Login

    Hourly Weather Kozly

    Today, 20 July, Friday

    Time Temperature Precipitation Wind Pressure Humidity
    00:00 +18°C° 0.1 mm 2 mps 733 mmHg 97%
    01:00 +18°C° 0.1 mm 2 mps 732 mmHg 98%
    02:00 +17°C° 0.1 mm 2 mps 732 mmHg 98%
    03:00 +18°C° 0.2 mm 3 mps 732 mmHg 98%
    04:00 +18°C° 0.2 mm 3 mps 732 mmHg 98%
    05:00 +18°C° 0.2 mm 3 mps 732 mmHg 97%
    06:00 +18°C° 0.3 mm 3 mps 732 mmHg 97%
    07:00 +18°C° 0.3 mm 3 mps 732 mmHg 97%
    08:00 +19°C° 0.3 mm 2 mps 732 mmHg 96%
    09:00 +19°C° 0.1 mm 2 mps 732 mmHg 96%
    10:00 +19°C° 0.1 mm 3 mps 733 mmHg 95%
    11:00 +20°C° 0.1 mm 3 mps 733 mmHg 94%
    12:00 +21°C° 0.1 mm 3 mps 732 mmHg 90%
    13:00 +21°C° 0.1 mm 3 mps 732 mmHg 86%
    14:00 +22°C° 0.1 mm 3 mps 732 mmHg 82%
    15:00 +22°C° 0.2 mm 3 mps 732 mmHg 82%
    16:00 +24°C° 0.2 mm 3 mps 732 mmHg 82%
    17:00 +24°C° 0.2 mm 3 mps 732 mmHg 82%
    18:00 +23°C° 0.1 mm 2 mps 732 mmHg 86%
    19:00 +21°C° 0.1 mm 2 mps 732 mmHg 91%
    20:00 +21°C° 0.1 mm 1 mps 732 mmHg 95%
    21:00 +20°C° 0 mm 1 mps 731 mmHg 96%
    22:00 +20°C° 0 mm 1 mps 731 mmHg 97%
    23:00 +19°C° 0 mm 1 mps 731 mmHg 98%

    Tomorrow, 21 July, Saturday

    Time Temperature Precipitation Wind Pressure Humidity
    00:00 +19°C° 0 mm 1 mps 732 mmHg 98%
    01:00 +19°C° 0 mm 1 mps 732 mmHg 98%
    02:00 +18°C° 0 mm 1 mps 732 mmHg 98%
    03:00 +19°C° 0 mm 1 mps 732 mmHg 98%
    04:00 +19°C° 0 mm 1 mps 732 mmHg 98%
    05:00 +19°C° 0 mm 1 mps 732 mmHg 98%
    06:00 +20°C° 0 mm 1 mps 732 mmHg 95%
    07:00 +22°C° 0 mm 1 mps 733 mmHg 91%
    08:00 +23°C° 0 mm 1 mps 733 mmHg 88%
    09:00 +24°C° 0.2 mm 1 mps 733 mmHg 85%
    10:00 +25°C° 0.2 mm 1 mps 733 mmHg 81%
    11:00 +26°C° 0.2 mm 1 mps 733 mmHg 78%
    12:00 +26°C° 0.7 mm 1 mps 733 mmHg 78%
    13:00 +27°C° 0.7 mm 2 mps 733 mmHg 78%
    14:00 +27°C° 0.7 mm 2 mps 733 mmHg 77%
    15:00 +26°C° 1 mm 2 mps 733 mmHg 82%
    16:00 +25°C° 1 mm 2 mps 733 mmHg 87%
    17:00 +24°C° 1 mm 2 mps 733 mmHg 91%
    18:00 +23°C° 0.6 mm 2 mps 733 mmHg 93%
    19:00 +21°C° 0.6 mm 2 mps 733 mmHg 95%
    20:00 +21°C° 0.6 mm 2 mps 733 mmHg 97%
    21:00 +20°C° 0.1 mm 2 mps 733 mmHg 97%
    22:00 +20°C° 0.1 mm 2 mps 733 mmHg 97%
    23:00 +19°C° 0.1 mm 2 mps 733 mmHg 98%

    Day after tomorrow, 22 July, Sunday

    Time Temperature Precipitation Wind Pressure Humidity
    00:00 +19°C° 0.1 mm 2 mps 733 mmHg 98%
    01:00 +19°C° 0.1 mm 2 mps 732 mmHg 98%
    02:00 +19°C° 0.1 mm 2 mps 732 mmHg 98%
    03:00 +19°C° 0.2 mm 2 mps 732 mmHg 98%
    04:00 +19°C° 0.2 mm 2 mps 733 mmHg 98%
    05:00 +19°C° 0.2 mm 3 mps 733 mmHg 98%
    06:00 +20°C° 0.1 mm 3 mps 733 mmHg 97%
    07:00 +20°C° 0.1 mm 3 mps 733 mmHg 97%
    08:00 +20°C° 0.1 mm 3 mps 733 mmHg 96%
    09:00 +20°C° 0.1 mm 3 mps 733 mmHg 95%
    10:00 +21°C° 0.1 mm 3 mps 732 mmHg 94%
    11:00 +21°C° 0.1 mm 3 mps 732 mmHg 93%
    12:00 +21°C° 0.1 mm 3 mps 732 mmHg 91%
    13:00 +21°C° 0.1 mm 3 mps 732 mmHg 90%
    14:00 +22°C° 0.1 mm 3 mps 732 mmHg 88%
    15:00 +22°C° 0.1 mm 3 mps 732 mmHg 88%
    16:00 +22°C° 0.1 mm 3 mps 732 mmHg 88%
    17:00 +22°C° 0.1 mm 3 mps 732 mmHg 88%
    18:00 +21°C° 0 mm 3 mps 732 mmHg 90%
    19:00 +21°C° 0 mm 3 mps 732 mmHg 92%
    20:00 +21°C° 0 mm 3 mps 732 mmHg 94%
    21:00 +20°C° 0.1 mm 3 mps 732 mmHg 95%
    22:00 +20°C° 0.1 mm 3 mps 732 mmHg 96%
    23:00 +20°C° 0.1 mm 3 mps 732 mmHg 97%

    23 July, Monday

    Time Temperature Precipitation Wind Pressure Humidity
    00:00 +20°C° 0.1 mm 3 mps 732 mmHg 97%
    01:00 +20°C° 0.1 mm 3 mps 732 mmHg 98%
    02:00 +20°C° 0.1 mm 3 mps 732 mmHg 98%
    03:00 +19°C° 0.1 mm 3 mps 732 mmHg 98%
    04:00 +19°C° 0.1 mm 3 mps 732 mmHg 97%
    05:00 +19°C° 0.1 mm 3 mps 732 mmHg 97%
    06:00 +19°C° 0.1 mm 3 mps 732 mmHg 97%
    07:00 +19°C° 0.1 mm 3 mps 732 mmHg 96%
    08:00 +20°C° 0.1 mm 3 mps 732 mmHg 96%
    09:00 +20°C° 0.1 mm 3 mps 732 mmHg 95%
    10:00 +20°C° 0.1 mm 3 mps 733 mmHg 94%
    11:00 +21°C° 0.1 mm 2 mps 733 mmHg 93%
    12:00 +21°C° 0.1 mm 2 mps 733 mmHg 92%
    13:00 +21°C° 0.1 mm 3 mps 733 mmHg 90%
    14:00 +22°C° 0.1 mm 3 mps 733 mmHg 89%
    15:00 +22°C° 0.1 mm 3 mps 733 mmHg 89%
    16:00 +22°C° 0.1 mm 3 mps 733 mmHg 89%
    17:00 +22°C° 0.1 mm 3 mps 733 mmHg 89%
    18:00 +21°C° 0.1 mm 3 mps 733 mmHg 91%
    19:00 +21°C° 0.1 mm 2 mps 733 mmHg 93%
    20:00 +20°C° 0.1 mm 2 mps 733 mmHg 96%
    21:00 +20°C° 0.4 mm 2 mps 733 mmHg 96%
    22:00 +20°C° 0.4 mm 2 mps 733 mmHg 97%
    23:00 +19°C° 0.4 mm 2 mps 733 mmHg 98%

    24 July, Tuesday

    Time Temperature Precipitation Wind Pressure Humidity
    00:00 +19°C° 0.6 mm 2 mps 733 mmHg 98%
    01:00 +19°C° 0.6 mm 2 mps 733 mmHg 99%
    02:00 +19°C° 0.6 mm 2 mps 733 mmHg 99%
    03:00 +19°C° 0.2 mm 2 mps 733 mmHg 99%
    04:00 +19°C° 0.2 mm 2 mps 733 mmHg 98%
    05:00 +19°C° 0.2 mm 2 mps 734 mmHg 98%
    06:00 +20°C° 0.1 mm 2 mps 734 mmHg 97%
    07:00 +20°C° 0.1 mm 2 mps 734 mmHg 96%
    08:00 +21°C° 0.1 mm 2 mps 734 mmHg 95%
    09:00 +21°C° 0.1 mm 2 mps 735 mmHg 92%
    10:00 +23°C° 0.1 mm 2 mps 735 mmHg 89%
    11:00 +24°C° 0.1 mm 2 mps 735 mmHg 85%
    12:00 +24°C° 0.4 mm 2 mps 735 mmHg 81%
    13:00 +25°C° 0.4 mm 2 mps 735 mmHg 77%
    14:00 +26°C° 0.4 mm 2 mps 735 mmHg 72%
    15:00 +26°C° 0.6 mm 2 mps 735 mmHg 75%
    16:00 +26°C° 0.6 mm 2 mps 735 mmHg 78%
    17:00 +26°C° 0.6 mm 2 mps 735 mmHg 80%
    18:00 +25°C° 0.5 mm 2 mps 735 mmHg 85%
    19:00 +23°C° 0.5 mm 2 mps 736 mmHg 90%
    20:00 +21°C° 0.5 mm 2 mps 736 mmHg 95%
    21:00 +20°C° 0 mm 2 mps 736 mmHg 96%
    22:00 +20°C° 0 mm 2 mps 736 mmHg 97%
    23:00 +19°C° 0 mm 2 mps 736 mmHg 98%

    25 July, Wednesday

    Time Temperature Precipitation Wind Pressure Humidity
    00:00 +19°C° 0 mm 2 mps 736 mmHg 98%
    01:00 +19°C° 0 mm 2 mps 736 mmHg 98%
    02:00 +18°C° 0 mm 2 mps 736 mmHg 98%
    03:00 +18°C° 0 mm 2 mps 737 mmHg 98%
    04:00 +18°C° 0 mm 2 mps 737 mmHg 98%
    05:00 +18°C° 0 mm 2 mps 737 mmHg 98%
    06:00 +20°C° 0 mm 2 mps 738 mmHg 94%
    07:00 +21°C° 0 mm 2 mps 738 mmHg 90%
    08:00 +24°C° 0 mm 3 mps 738 mmHg 86%
    09:00 +24°C° 0.4 mm 3 mps 738 mmHg 83%
    10:00 +25°C° 0.4 mm 3 mps 738 mmHg 80%
    11:00 +26°C° 0.4 mm 4 mps 739 mmHg 76%
    12:00 +26°C° 0.6 mm 4 mps 739 mmHg 78%
    13:00 +25°C° 0.6 mm 4 mps 739 mmHg 80%
    14:00 +23°C° 0.6 mm 4 mps 739 mmHg 82%
    15:00 +24°C° 0.1 mm 3 mps 739 mmHg 79%
    16:00 +24°C° 0.1 mm 3 mps 739 mmHg 76%
    17:00 +24°C° 0.1 mm 2 mps 739 mmHg 73%
    18:00 +23°C° 0 mm 2 mps 739 mmHg 78%
    19:00 +22°C° 0 mm 1 mps 739 mmHg 83%
    20:00 +20°C° 0 mm 1 mps 739 mmHg 87%
    21:00 +20°C° 0 mm 1 mps 739 mmHg 88%
    22:00 +19°C° 0 mm 1 mps 739 mmHg 89%
    23:00 +19°C° 0 mm 1 mps 739 mmHg 90%
    Show more